Flag for Belgium Weather past 2 weeks in Bruges, Belgium

Now
48 °F

Passing clouds.


Feels Like: 40 °F
Forecast: 43 / 49 °F
Wind: 25 mph from Northwest

Location: Oostende Airport

Current Time: Mar 31, 2015 at 7:33:25 PM

Latest Report: Mar 31, 2015 at 6:50 PM


Visibility: N/A

Pressure: 29.86 "Hg

Humidity: 71%

Dew point: 39 °F

Location of BrugesLocation

Historic Weather in Bruges — Graph

°F

Bruges temperature yesterday

Maximum temperature yesterday: 50 °F (at 3:20 PM)
Minimum temperature yesterday: 45 °F (at 4:20 AM)
Average temperature yesterday: 46 °F

Past Weeks' High & Low Weather Summary

 TemperatureHumidityPressure
High59 °F (Mar 17, 1:20 PM)100% (Mar 16, 10:20 PM)30.45 "Hg (Mar 16, 10:20 PM)
Low27 °F (Mar 23, 4:50 AM)51% (Mar 17, 1:50 PM)29.36 "Hg (Mar 29, 4:20 PM)
Average43 °F84%30.02 "Hg
* Reported Mar 16 5:20 PM — Mar 31 6:20 PM, Bruges, Weather by CustomWeather, © 2015

Note: Actual official high and low records may vary slightly from our data, if they occured in-between our weather recording intervals... More about our weather records

Advertising

Bruges weather history for previous 24 hours

 ConditionsComfort  
Time TempWeatherWind HumidityBarometerVisibility
6:20 PM
Tue, Mar 31
52 °FPassing clouds.24 mph58%29.83 "HgN/A
5:50 PM52 °FPassing clouds.22 mph62%29.83 "HgN/A
5:20 PM54 °FPassing clouds.23 mph54%29.83 "HgN/A
4:50 PM54 °FPassing clouds.25 mph54%29.83 "HgN/A
4:20 PM54 °FPassing clouds.23 mph58%29.83 "HgN/A
3:50 PM52 °FPassing clouds.20 mph62%29.80 "HgN/A
3:20 PM52 °FPassing clouds.22 mph62%29.80 "HgN/A
2:50 PM52 °FPassing clouds.24 mph62%29.80 "HgN/A
2:20 PM52 °FPassing clouds.26 mph62%29.77 "HgN/A
1:50 PM52 °FScattered clouds.25 mph67%29.77 "HgN/A
1:20 PM50 °FScattered clouds.29 mph67%29.74 "HgN/A
12:50 PM50 °FScattered clouds.30 mph67%29.74 "HgN/A
12:20 PM48 °FPartly sunny.28 mph76%29.71 "HgN/A
11:50 AM50 °FPartly sunny.29 mph71%29.68 "HgN/A
11:20 AM50 °FPartly sunny.29 mph71%29.65 "HgN/A
10:50 AM50 °FPartly sunny.29 mph71%29.62 "HgN/A
10:20 AM50 °FPartly sunny.24 mph76%29.59 "HgN/A
9:50 AM50 °FPartly sunny.28 mph71%29.56 "HgN/A
9:20 AM50 °FScattered clouds.25 mph71%29.53 "HgN/A
8:50 AM50 °FScattered clouds.31 mph67%29.53 "HgN/A
8:20 AM48 °FPassing clouds.30 mph87%29.50 "Hg5 mi
7:50 AM50 °FPassing clouds.35 mph82%29.47 "Hg5 mi
7:20 AM50 °FSprinkles. Passing clouds.35 mph88%29.45 "Hg4 mi
6:50 AM50 °FPassing clouds.38 mph88%29.42 "Hg5 mi
6:20 AM50 °FPassing clouds.37 mph88%29.42 "Hg6 mi
5:50 AM50 °FPassing clouds.37 mph88%29.42 "Hg6 mi
5:20 AM50 °FScattered showers. Partly cloudy.38 mph94%29.42 "Hg6 mi
4:50 AM50 °FSprinkles. Fog.36 mph94%29.42 "Hg2 mi
4:20 AM50 °FSprinkles. Fog.36 mph94%29.42 "Hg2 mi
3:50 AM50 °FPartly cloudy.32 mph94%29.42 "HgN/A
3:20 AM52 °FPartly cloudy.35 mph88%29.42 "HgN/A
2:50 AM52 °FPassing clouds.33 mph88%29.45 "HgN/A
2:20 AM52 °FPassing clouds.35 mph88%29.47 "HgN/A
1:50 AM52 °FPassing clouds.33 mph88%29.50 "HgN/A
1:20 AM52 °FPassing clouds.31 mph88%29.50 "HgN/A
12:50 AM50 °FPassing clouds.28 mph94%29.53 "HgN/A
12:20 AM48 °FPassing clouds.21 mph94%29.56 "Hg5 mi
11:50 PM
Mon, Mar 30
46 °FDrizzle. Fog.21 mph93%29.59 "Hg3 mi
10:50 PM45 °FPassing clouds.18 mph93%29.65 "Hg4 mi
10:20 PM45 °FLight rain. Passing clouds.17 mph93%29.71 "HgN/A
9:50 PM45 °FLight rain. Partly cloudy.16 mph93%29.74 "HgN/A
9:20 PM45 °FLight rain. Partly cloudy.14 mph87%29.77 "HgN/A
8:50 PM45 °FLight rain. Partly sunny.20 mph81%29.80 "HgN/A
8:20 PM46 °FPassing clouds.14 mph76%29.83 "HgN/A
7:50 PM46 °FPassing clouds.14 mph76%29.83 "HgN/A
7:20 PM46 °FPassing clouds.16 mph76%29.86 "HgN/A
Weather by CustomWeather, © 2015

See weather overviewHow to use our weather pages